Location: Denia
(38.8500°N, 0.1170°E)
Time: 01:32:53
(UTC+01:00)

Envisat - Pass Details

Date: 25 January 2020
Orbit: 764 x 766 km, 98.1° (Epoch: 24 February)

Event Time Altitude Azimuth Distance (km) Brightness Sun altitude
Rises 07:12:54 0° 19° (NNE) 3,239 6.3 -11.6°
Reaches altitude 10° 07:15:18 10° 25° (NNE) 2,308 5.6 -11.2°
Maximum altitude 07:20:12 47° 99° (E) 1,014 4.2 -10.2°
Drops below altitude 10° 07:25:03 10° 173° (S) 2,292 5.8 -9.3°
Sets 07:27:25 0° 179° (S) 3,213 6.5 -8.9°
